GW1418 Weather Reports


Display with metric or nautical units.
time (UTC)temp
F
wind
direction
speed
MPH
gust
MPH
rain 1hr
in
rain 24hr
in
rain mn
in
humidity
%
barometer
mb
20260506051017 59 132 1.0 2.0 0.00 0.00 0.00 81 1012.0
20260506050515 59 129 0.0 0.0 0.00 0.00 0.00 81 1012.4
20260506045005 60 131 0.0 0.0 0.00 0.00 0.00 80 1012.0
20260506044503 60 134 0.0 0.0 0.00 0.00 0.00 80 1012.0
20260506043959 60 110 0.0 0.0 0.00 0.00 0.00 79 1012.0
20260506043456 60 125 1.0 1.0 0.00 0.00 0.00 79 1012.4
20260506042954 61 350 1.0 5.0 0.00 0.00 0.00 78 1012.4
20260506042449 61 116 1.0 2.0 0.00 0.00 0.00 78 1012.0
20260506041946 61 137 0.0 0.0 0.00 0.00 0.00 78 1012.0
20260506041444 62 131 3.0 5.0 0.00 0.00 0.00 77 1012.0
20260506040941 62 130 0.0 1.0 0.00 0.00 0.00 78 1011.7
20260506040438 62 133 0.0 0.0 0.00 0.00 0.00 77 1012.0
20260506035934 63 117 0.0 0.0 0.00 0.00 0.00 77 1011.7
20260506035432 63 134 1.0 1.0 0.00 0.00 0.00 76 1011.7
20260506034928 63 130 1.0 2.0 0.00 0.00 0.00 76 1011.7
20260506034426 64 123 1.0 1.0 0.00 0.00 0.00 77 1011.7
20260506033923 64 138 0.0 0.0 0.00 0.00 0.00 76 1011.4
20260506033420 65 102 1.0 2.0 0.00 0.00 0.00 75 1011.4
20260506032917 65 116 1.0 2.0 0.00 0.00 0.00 75 1011.4
20260506032414 66 146 3.0 3.0 0.00 0.00 0.00 75 1011.4
20260506031910 66 15 3.0 5.0 0.00 0.00 0.00 75 1011.0
20260506031408 66 113 0.0 1.0 0.00 0.00 0.00 75 1011.0
20260506030905 66 141 0.0 0.0 0.00 0.00 0.00 74 1011.4
20260506030403 67 125 2.0 3.0 0.00 0.00 0.00 73 1011.0
20260506025900 67 121 0.0 1.0 0.00 0.00 0.00 73 1010.6
20260506025356 67 138 1.0 1.0 0.00 0.00 0.00 74 1010.6
20260506024854 67 80 1.0 2.0 0.00 0.00 0.00 74 1010.2
20260506024351 68 138 0.0 0.0 0.00 0.00 0.00 74 1010.2
20260506023846 68 133 0.0 0.0 0.00 0.00 0.00 74 1009.9
20260506023343 68 109 1.0 1.0 0.00 0.00 0.00 73 1010.2
20260506022840 68 129 1.0 1.0 0.00 0.00 0.00 72 1009.9
20260506022338 68 150 0.0 0.0 0.00 0.00 0.00 72 1009.6
20260506021836 68 131 0.0 0.0 0.00 0.00 0.00 70 1009.6
20260506021332 69 126 1.0 2.0 0.00 0.00 0.00 69 1009.6
20260506020829 69 130 0.0 0.0 0.00 0.00 0.00 68 1009.2
20260506020327 69 128 1.0 2.0 0.00 0.00 0.00 68 1008.9
20260506015824 69 115 1.0 1.0 0.00 0.00 0.00 67 1009.2
20260506015322 70 130 0.0 1.0 0.00 0.00 0.00 67 1008.9
20260506014818 70 50 1.0 2.0 0.00 0.00 0.00 66 1008.6
20260506014315 70 121 1.0 2.0 0.00 0.00 0.00 66 1008.6
20260506013812 70 126 1.0 2.0 0.00 0.00 0.00 67 1008.6
20260506013309 71 130 0.0 0.0 0.00 0.00 0.00 66 1008.2
20260506012806 71 55 3.0 5.0 0.00 0.00 0.00 66 1008.9
20260506012307 71 119 0.0 1.0 0.00 0.00 0.00 66 1008.2
20260506011800 71 127 1.0 2.0 0.00 0.00 0.00 66 1008.2
20260506011256 72 92 3.0 3.0 0.00 0.00 0.00 65 1007.9
20260506010754 72 123 1.0 1.0 0.00 0.00 0.00 65 1007.9
20260506010252 72 125 1.0 2.0 0.00 0.00 0.00 64 1007.9
20260506005749 73 130 1.0 2.0 0.00 0.00 0.00 63 1007.9
20260506005245 73 111 1.0 2.0 0.00 0.00 0.00 64 1007.9
20260506004741 73 126 1.0 1.0 0.00 0.00 0.00 63 1007.9
20260506004239 74 131 0.0 0.0 0.00 0.00 0.00 63 1007.1
20260506003735 74 137 0.0 0.0 0.00 0.00 0.00 63 1007.5
20260506003231 75 135 2.0 2.0 0.00 0.00 0.00 62 1007.5
20260506002727 75 124 1.0 1.0 0.00 0.00 0.00 62 1007.1
20260506002224 75 125 3.0 3.0 0.00 0.00 0.00 62 1007.1
20260506001719 76 55 5.0 6.0 0.00 0.00 0.00 61 1007.1
20260506001217 77 79 5.0 7.0 0.00 0.00 0.00 62 1007.9
20260506000714 78 86 2.0 3.0 0.00 0.00 0.00 61 1007.1
20260506000212 78 132 1.0 1.0 0.00 0.00 0.00 61 1006.8
20260505235709 78 298 2.0 5.0 0.00 0.00 0.00 62 1006.8
20260505235207 78 124 2.0 3.0 0.00 0.00 0.00 61 1006.8
20260505234703 79 348 6.0 7.0 0.00 0.00 0.00 60 1006.8
20260505234200 79 7 4.0 6.0 0.00 0.00 0.00 59 1007.1
20260505233657 79 103 3.0 3.0 0.00 0.00 0.00 58 1007.1
20260505233155 80 119 7.0 9.0 0.00 0.00 0.00 58 1007.1
20260505232652 80 130 3.0 5.0 0.00 0.00 0.00 58 1007.1
20260505232150 82 97 5.0 8.0 0.00 0.00 0.00 57 1006.8
20260505231646 82 121 3.0 5.0 0.00 0.00 0.00 55 1006.8
20260505231145 83 119 2.0 2.0 0.00 0.00 0.00 56 1006.8
20260505230642 84 14 3.0 6.0 0.00 0.00 0.00 56 1006.8
20260505230138 84 106 1.0 2.0 0.00 0.00 0.00 56 1006.1
20260505225635 85 35 5.0 8.0 0.00 0.00 0.00 54 1006.1
20260505225131 86 54 3.0 6.0 0.00 0.00 0.00 53 1006.1
20260505224628 89 350 5.0 7.0 0.00 0.00 0.00 52 1005.4
20260505224126 88 110 5.0 8.0 0.00 0.00 0.00 50 1005.4
20260505223623 92 124 5.0 7.0 0.00 0.00 0.00 44 1005.4
20260505223119 93 40 2.0 3.0 0.00 0.00 0.00 41 1005.7
20260505222615 93 137 0.0 0.0 0.00 0.00 0.00 43 1005.4
20260505222111 93 130 2.0 2.0 0.00 0.00 0.00 42 1005.4
20260505221609 93 107 3.0 3.0 0.00 0.00 0.00 40 1005.4
20260505221105 93 42 3.0 3.0 0.00 0.00 0.00 41 1005.4
20260505220603 94 141 2.0 3.0 0.00 0.00 0.00 40 1005.4
20260505220100 93 138 1.0 1.0 0.00 0.00 0.00 41 1005.7
20260505215558 92 150 2.0 2.0 0.00 0.00 0.00 42 1005.4
20260505215056 93 133 1.0 1.0 0.00 0.00 0.00 42 1005.4
20260505214554 91 137 2.0 3.0 0.00 0.00 0.00 44 1005.7
20260505214050 91 86 1.0 1.0 0.00 0.00 0.00 44 1005.4
20260505213548 92 20 2.0 3.0 0.00 0.00 0.00 43 1005.4
20260505213044 91 345 4.0 6.0 0.00 0.00 0.00 42 1005.4
20260505212540 92 31 5.0 7.0 0.00 0.00 0.00 42 1005.4
20260505212038 93 326 3.0 3.0 0.00 0.00 0.00 41 1005.1
20260505211535 92 39 3.0 5.0 0.00 0.00 0.00 43 1005.1
20260505211031 92 134 1.0 2.0 0.00 0.00 0.00 43 1005.7
20260505210528 92 176 2.0 2.0 0.00 0.00 0.00 40 1005.7
20260505210025 92 263 3.0 6.0 0.00 0.00 0.00 38 1005.7
20260505205524 93 136 0.0 1.0 0.00 0.00 0.00 39 1005.4
20260505205020 93 161 2.0 3.0 0.00 0.00 0.00 41 1005.7
20260505204518 93 272 4.0 8.0 0.00 0.00 0.00 39 1005.7
20260505204015 93 304 5.0 6.0 0.00 0.00 0.00 38 1005.7
20260505203512 94 135 0.0 0.0 0.00 0.00 0.00 39 1005.7
20260505203009 95 138 0.0 1.0 0.00 0.00 0.00 40 1005.7
20260505202505 93 187 3.0 3.0 0.00 0.00 0.00 38 1006.1
20260505202001 93 260 4.0 5.0 0.00 0.00 0.00 40 1006.1
20260505201458 92 298 7.0 9.0 0.00 0.00 0.00 41 1006.1
20260505200955 91 297 4.0 5.0 0.00 0.00 0.00 39 1006.1
20260505200453 92 266 7.0 9.0 0.00 0.00 0.00 41 1006.4
20260505195948 92 291 7.0 8.0 0.00 0.00 0.00 44 1006.4
20260505195446 91 143 0.0 1.0 0.00 0.00 0.00 44 1006.1
20260505194943 91 243 5.0 6.0 0.00 0.00 0.00 42 1006.1
20260505194441 92 281 5.0 7.0 0.00 0.00 0.00 44 1006.4
20260505193940 91 156 3.0 5.0 0.00 0.00 0.00 46 1006.8
20260505193438 91 264 5.0 7.0 0.00 0.00 0.00 47 1006.8
20260505192936 91 143 1.0 2.0 0.00 0.00 0.00 46 1006.8
20260505192434 91 163 4.0 5.0 0.00 0.00 0.00 47 1006.4
20260505191931 91 275 4.0 5.0 0.00 0.00 0.00 47 1006.8
20260505191430 91 316 4.0 6.0 0.00 0.00 0.00 46 1006.8
20260505190926 90 134 3.0 3.0 0.00 0.00 0.00 48 1006.8
20260505190421 90 135 4.0 7.0 0.00 0.00 0.00 48 1006.8
20260505185917 90 169 4.0 6.0 0.00 0.00 0.00 50 1006.8
20260505185415 90 262 5.0 6.0 0.00 0.00 0.00 46 1006.8
20260505184910 89 209 5.0 7.0 0.00 0.00 0.00 49 1006.8
20260505184407 89 149 3.0 6.0 0.00 0.00 0.00 52 1007.1
20260505183905 89 186 5.0 6.0 0.00 0.00 0.00 53 1006.8
20260505183401 89 335 3.0 7.0 0.00 0.00 0.00 52 1006.4
20260505182858 88 136 5.0 6.0 0.00 0.00 0.00 55 1007.1
20260505182355 87 207 5.0 7.0 0.00 0.00 0.00 54 1007.1
20260505181851 88 292 5.0 6.0 0.00 0.00 0.00 54 1007.1
20260505181349 88 218 6.0 8.0 0.00 0.00 0.00 55 1006.8
20260505180845 88 181 5.0 7.0 0.00 0.00 0.00 54 1007.1
20260505180342 88 178 5.0 8.0 0.00 0.00 0.00 54 1007.1
20260505175839 87 156 2.0 3.0 0.00 0.00 0.00 58 1007.1
20260505175335 86 226 7.0 11.0 0.00 0.00 0.00 57 1007.1
20260505174831 87 240 5.0 8.0 0.00 0.00 0.00 57 1007.1
20260505174329 87 260 5.0 8.0 0.00 0.00 0.00 57 1007.1
20260505173824 87 189 3.0 5.0 0.00 0.00 0.00 58 1007.1
20260505173321 86 211 3.0 3.0 0.00 0.00 0.00 60 1007.1
20260505172819 86 157 3.0 5.0 0.00 0.00 0.00 61 1007.1
20260505172316 85 203 5.0 7.0 0.00 0.00 0.00 62 1007.5
20260505171815 84 111 3.0 3.0 0.00 0.00 0.00 62 1007.1
20260505171313 84 210 7.0 10.0 0.00 0.00 0.00 62 1007.1
20260505170809 84 208 7.0 8.0 0.00 0.00 0.00 62 1007.5
20260505170306 84 240 7.0 9.0 0.00 0.00 0.00 62 1007.5
20260505165801 83 231 8.0 11.0 0.00 0.00 0.00 63 1007.5
20260505165257 83 176 4.0 6.0 0.00 0.00 0.00 66 1007.5
20260505164753 83 136 1.0 2.0 0.00 0.00 0.00 67 1007.1
20260505164250 82 197 3.0 5.0 0.00 0.00 0.00 68 1007.5
20260505163748 82 142 1.0 2.0 0.00 0.00 0.00 68 1007.1
20260505163247 82 193 5.0 6.0 0.00 0.00 0.00 68 1007.1
20260505162744 81 168 3.0 3.0 0.00 0.00 0.00 68 1007.5
20260505162241 81 237 7.0 10.0 0.00 0.00 0.00 68 1006.8
20260505161738 81 156 6.0 9.0 0.00 0.00 0.00 69 1006.8
20260505161236 80 163 7.0 13.0 0.00 0.00 0.00 70 1006.8
20260505160733 80 137 6.0 8.0 0.00 0.00 0.00 71 1006.8
20260505160231 80 206 6.0 8.0 0.00 0.00 0.00 70 1006.8
20260505153209 80 240 5.0 7.0 0.00 0.00 0.00 70 1006.8
20260505152706 80 231 7.0 10.0 0.00 0.00 0.00 71 1006.8
20260505152202 79 196 5.0 6.0 0.00 0.00 0.00 73 1007.1
20260505151657 79 196 5.0 6.0 0.00 0.00 0.00 73 1006.8
20260505151156 80 313 8.0 11.0 0.00 0.00 0.00 72 1006.8
20260505150651 79 118 7.0 10.0 0.00 0.00 0.00 72 1006.8
20260505150148 79 207 7.0 9.0 0.00 0.00 0.00 73 1006.8
20260505140617 74 218 7.0 9.0 0.00 0.00 0.00 80 1006.4
20260505140114 73 203 8.0 10.0 0.00 0.00 0.00 80 1006.8
20260505125030 70 168 4.0 6.0 0.00 0.00 0.00 84 1006.1
20260505124527 70 198 6.0 8.0 0.00 0.00 0.00 84 1006.1
20260505124023 70 152 5.0 6.0 0.00 0.00 0.00 85 1006.1
20260505123520 70 176 3.0 5.0 0.00 0.00 0.00 85 1006.1
20260505123016 70 201 4.0 6.0 0.00 0.00 0.00 85 1006.1
20260505122513 69 157 2.0 2.0 0.00 0.00 0.00 85 1006.1
20260505122010 69 168 3.0 6.0 0.00 0.00 0.00 85 1006.1
20260505121506 69 146 2.0 5.0 0.00 0.00 0.00 85 1005.7
20260505121003 69 169 1.0 2.0 0.00 0.00 0.00 85 1005.7
20260505120459 69 176 3.0 5.0 0.00 0.00 0.00 85 1005.4
20260505115958 69 161 3.0 3.0 0.00 0.00 0.00 85 1005.4
20260505115455 69 179 7.0 9.0 0.00 0.00 0.00 85 1005.4
20260505114953 70 146 3.0 5.0 0.00 0.00 0.00 84 1005.4
20260505114449 70 177 4.0 6.0 0.00 0.00 0.00 84 1005.4
20260505113946 70 162 4.0 7.0 0.00 0.00 0.00 84 1005.4
20260505113442 70 148 7.0 10.0 0.00 0.00 0.00 84 1005.4
20260505112937 70 157 3.0 5.0 0.00 0.00 0.00 84 1005.1
20260505112435 70 179 6.0 7.0 0.00 0.00 0.00 83 1005.4
20260505111932 70 172 5.0 10.0 0.00 0.00 0.00 83 1005.1
20260505111426 70 180 7.0 9.0 0.00 0.00 0.00 83 1005.4
20260505110923 70 171 9.0 14.0 0.00 0.00 0.00 83 1005.1
20260505110420 70 157 4.0 6.0 0.00 0.00 0.00 83 1005.1
20260505101851 71 196 5.0 8.0 0.00 0.00 0.00 82 1005.4
20260505101345 71 166 5.0 8.0 0.00 0.00 0.00 82 1005.4
20260505100842 71 201 5.0 8.0 0.00 0.00 0.00 82 1005.4
20260505100338 71 218 6.0 8.0 0.00 0.00 0.00 82 1005.4
20260505095834 71 210 7.0 9.0 0.00 0.00 0.00 81 1005.4
20260505095332 71 193 4.0 5.0 0.00 0.00 0.00 81 1005.4
20260505094828 71 183 5.0 6.0 0.00 0.00 0.00 81 1005.4
20260505094325 71 225 6.0 7.0 0.00 0.00 0.00 81 1005.4
20260505093820 71 155 4.0 5.0 0.00 0.00 0.00 81 1005.4
20260505093318 71 219 6.0 7.0 0.00 0.00 0.00 81 1005.4
20260505092814 71 208 6.0 7.0 0.00 0.00 0.00 81 1005.1
20260505092313 71 154 4.0 7.0 0.00 0.00 0.00 80 1005.4
20260505091810 71 195 4.0 8.0 0.00 0.00 0.00 80 1005.4
20260505091308 71 217 8.0 15.0 0.00 0.00 0.00 80 1005.4
20260505090806 71 183 6.0 8.0 0.00 0.00 0.00 80 1005.7
20260505090304 71 205 4.0 6.0 0.00 0.00 0.00 80 1005.7
20260505085801 72 187 6.0 8.0 0.00 0.00 0.00 80 1005.7
20260505085259 72 164 5.0 6.0 0.00 0.00 0.00 80 1005.7
20260505084756 72 231 8.0 11.0 0.00 0.00 0.00 80 1005.7
20260505084255 72 154 5.0 8.0 0.00 0.00 0.00 79 1005.4
20260505083751 72 217 11.0 15.0 0.00 0.00 0.00 79 1005.7
20260505083248 72 149 4.0 5.0 0.00 0.00 0.00 79 1005.7
20260505082744 72 216 3.0 5.0 0.00 0.00 0.00 79 1005.7
20260505082242 72 223 7.0 9.0 0.00 0.00 0.00 79 1005.7
20260505081737 72 154 5.0 6.0 0.00 0.00 0.00 79 1006.1
20260505081235 73 174 5.0 6.0 0.00 0.00 0.00 78 1006.1
20260505080732 73 184 5.0 9.0 0.00 0.00 0.00 78 1006.1
20260505080227 73 169 11.0 14.0 0.00 0.00 0.00 78 1006.1
20260505075723 73 116 5.0 7.0 0.00 0.00 0.00 78 1006.1
20260505075220 73 183 10.0 13.0 0.00 0.00 0.00 78 1005.7
20260505074718 73 189 8.0 10.0 0.00 0.00 0.00 77 1006.1
20260505074215 73 172 3.0 6.0 0.00 0.00 0.00 77 1006.1
20260505073712 73 175 7.0 9.0 0.00 0.00 0.00 77 1006.4
20260505073210 73 169 7.0 8.0 0.00 0.00 0.00 77 1006.1
20260505072706 73 155 8.0 10.0 0.00 0.00 0.00 76 1006.4
20260505072202 74 177 8.0 10.0 0.00 0.00 0.00 76 1006.4
20260505071658 74 193 5.0 7.0 0.00 0.00 0.00 76 1006.1
20260505071155 74 222 9.0 9.0 0.00 0.00 0.00 75 1006.4
20260505070653 74 179 10.0 14.0 0.00 0.00 0.00 76 1006.4
20260505070149 74 165 8.0 10.0 0.00 0.00 0.00 75 1006.4
20260505065645 74 169 8.0 13.0 0.00 0.00 0.00 75 1006.4
20260505065142 74 161 9.0 15.0 0.00 0.00 0.00 75 1006.4
20260505064638 74 220 9.0 11.0 0.00 0.00 0.00 75 1006.8
20260505064136 74 193 3.0 5.0 0.00 0.00 0.00 75 1006.4
20260505063634 75 154 11.0 17.0 0.00 0.00 0.00 75 1006.8
20260505063130 75 199 3.0 6.0 0.00 0.00 0.00 74 1006.8
20260505062626 75 170 9.0 10.0 0.00 0.00 0.00 74 1006.4
20260505062124 75 195 9.0 11.0 0.00 0.00 0.00 74 1006.4
20260505061621 75 193 9.0 11.0 0.00 0.00 0.00 74 1006.8
20260505061119 75 202 6.0 7.0 0.00 0.00 0.00 74 1006.8
20260505060616 75 220 11.0 14.0 0.00 0.00 0.00 73 1007.1
20260505060113 75 198 7.0 8.0 0.00 0.00 0.00 73 1006.8